Location: Maddington
(51.2000°N, 1.9167°W)
Time: 11:45:53
(UTC+00:00)

NOSS 2-2 (E) - Pass Details

Date: 26 January 2021
Orbit: 465 x 1741 km, 63.3° (Epoch: 16 January)

Event Time Altitude Azimuth Distance (km) Brightness Sun altitude
Rises 17:24:07 0° 310° (NW) 2,816 7.4 -5.9°
Reaches altitude 10° 17:26:28 10° 325° (NW) 2,051 6.4 -6.3°
Maximum altitude 17:30:19 25° 21° (NNE) 1,520 5.2 -6.8°
Drops below altitude 10° 17:35:09 10° 75° (ENE) 2,642 6.1 -7.5°
Enters shadow 17:35:33 - 77° (ENE) 2,775 6.2 -7.6°
